STARLINK-34870

Last updated on Tue Sep 16 2025 00:02:07 GMT+0000 (Coordinated Universal Time)

1 65370U 25190V 25258.05082294 -.00208642 00000+0 -22204-2 0 9995 2 65370 53.1586 267.5883 0001355 129.9151 230.1984 15.63997148 2341
UTC large
Height (km)
Speed (km/s)
/
Latitude / Longitude
Inclination (degrees)
Orbital Period (minutes)
Azimuth
Elevation
Range (km)
Doppler Factor

Next 0 passes for location: London (51.5072 / 0.1276)

Sorry there are no passes over London.